This is the latest recevied weather packets stored in our database for station/object AB4KY. If no packets are shown the sender has not sent any weather packets the latest 10 day(s).
| Time | Temp. | Humidity | Pressure | Rain* | Wind** | Luminosity | Snow |
|---|---|---|---|---|---|---|---|
| 1778168227 | 13.89° C | 46% | 1014.2 hPa | 0 mm | - | 621 W/m² | - |
| 1778167923 | 13.89° C | 46% | 1014.2 hPa | 0 mm | - | 553 W/m² | - |
| 1778167620 | 13.33° C | 42% | 1014.3 hPa | 0 mm | - | 689 W/m² | - |
| 1778167316 | 13.33° C | 47% | 1014.1 hPa | 0 mm | - | 654 W/m² | - |
| 1778167012 | 13.33° C | 48% | 1014.3 hPa | 0 mm | - | 718 W/m² | - |
| 1778166709 | 12.78° C | 42% | 1014.1 hPa | 0 mm | - | 623 W/m² | - |
| 1778166406 | 12.78° C | 47% | 1014 hPa | 0 mm | - | 525 W/m² | - |
| 1778166103 | 13.33° C | 49% | 1014.2 hPa | 0 mm | - | 541 W/m² | - |
| 1778165798 | 13.33° C | 46% | 1014.3 hPa | 0 mm | - | 471 W/m² | - |
| 1778165496 | 12.78° C | 48% | 1014.3 hPa | 0 mm | - | 607 W/m² | - |
| 1778165192 | 12.78° C | 47% | 1014.1 hPa | 0 mm | - | 574 W/m² | - |
| 1778164891 | 12.78° C | 51% | 1014.2 hPa | 0 mm | - | 619 W/m² | - |
| 1778164587 | 12.78° C | 47% | 1014.1 hPa | 0 mm | - | 606 W/m² | - |
| 1778164284 | 12.78° C | 50% | 1014.4 hPa | 0 mm | - | 539 W/m² | - |
| 1778163979 | 12.78° C | 55% | 1014.2 hPa | 0 mm | - | 511 W/m² | - |
| 1778163677 | 12.78° C | 51% | 1014.2 hPa | 0 mm | - | 492 W/m² | - |
| 1778163373 | 12.78° C | 54% | 1013.8 hPa | 0 mm | - | 352 W/m² | - |
| 1778163070 | 12.22° C | 51% | 1014.1 hPa | 0 mm | - | 387 W/m² | - |
| 1778162766 | 11.67° C | 55% | 1014.2 hPa | 0 mm | - | 406 W/m² | - |
| 1778162463 | 12.22° C | 55% | 1013.9 hPa | 0 mm | - | 448 W/m² | - |
| 1778162160 | 12.22° C | 65% | 1014.1 hPa | 0 mm | - | 445 W/m² | - |
| 1778161858 | 12.22° C | 65% | 1014.2 hPa | 0 mm | - | 930 W/m² | - |
| 1778161554 | 11.67° C | 63% | 1014.2 hPa | 0 mm | - | 710 W/m² | - |
| 1778161250 | 12.22° C | 69% | 1014.3 hPa | 0 mm | - | 313 W/m² | - |
| 1778160946 | 11.67° C | 69% | 1014.2 hPa | 0 mm | - | 261 W/m² | - |
* Rain latest hour (hover to see other rain measurements)
** Current wind speed in m/s (hover to see current wind gust speed)